Wind_Speed
73 68 61 61 66 70 70 71 69 66 67 68 71 72 71 71 68 66 64 61 59 58 56 54 53 53 53 52 52 52 51 51 50 48 47 46 43 41 41 40 42 48 52 51 49 49 49 46 45 44 40 39 37 36 36 35 35 34 33 32 30 28 26 24 23 22 20 19 19 19 18 18 17 17 17 17 16 15 16 16 16 17 17 17 16 16 17 18
72 69 62 60 63 65 66 68 68 66 67 67 68 71 71 71 69 67 64 61 60 58 57 55 54 54 53 53 53 53 53 52 52 49 48 47 44 43 42 40 41 47 52 53 50 50 50 47 45 45 43 42 39 37 37 37 36 35 33 32 30 29 27 25 25 24 22 21 21 20 19 18 17 17 18 17 17 16 16 16 16 17 17 17 16 16 17 18
71 71 64 60 61 62 62 66 69 66 65 66 65 69 70 70 69 67 64 62 60 59 58 56 55 54 54 54 54 55 54 53 53 49 48 48 46 44 43 40 41 46 51 53 51 50 51 47 45 47 46 44 40 38 38 37 37 35 34 32 31 30 28 27 27 26 24 22 22 20 19 18 18 18 18 17 17 16 16 16 15 16 17 16 16 16 17 17
69 72 67 62 60 60 61 64 70 69 64 64 64 65 67 68 69 67 64 62 61 59 58 57 56 55 54 55 56 56 54 54 52 49 50 49 47 45 44 42 41 45 51 53 52 51 51 48 46 47 47 44 39 38 38 37 37 36 33 32 33 32 29 29 28 27 25 23 23 22 21 20 19 19 18 17 17 16 17 16 16 16 17 17 16 16 17 18
68 71 70 65 63 60 60 64 69 70 65 63 63 61 62 64 67 66 64 62 61 60 58 57 56 55 55 56 57 56 56 55 51 50 52 50 49 47 47 46 41 43 50 54 53 53 53 49 48 48 47 43 39 37 37 37 37 36 33 34 35 32 31 30 29 28 26 24 24 23 22 22 21 19 18 18 17 17 17 17 17 17 17 17 17 17 17 18
68 69 71 67 65 62 61 65 68 69 66 62 62 61 60 60 62 63 62 61 60 59 58 57 57 57 56 56 58 57 56 54 50 51 54 51 50 49 49 49 44 41 46 53 55 55 55 52 49 50 48 44 39 37 37 38 38 36 34 36 36 33 32 32 31 29 27 26 26 25 24 23 21 20 19 19 18 18 18 18 17 17 17 18 18 18 18 18
72 67 70 66 63 63 61 64 67 67 66 63 61 61 60 58 59 60 60 60 59 58 58 57 58 58 57 57 58 58 57 53 50 51 54 53 52 51 50 50 47 42 41 49 57 56 55 54 50 50 51 47 42 39 39 40 39 38 36 38 36 33 33 32 31 30 29 28 28 27 25 23 22 21 20 20 20 20 20 19 18 17 17 18 18 18 18 19
79 66 69 65 60 63 61 61 66 66 64 63 62 60 59 57 57 58 59 59 59 59 59 58 58 58 57 58 58 58 56 54 51 52 54 54 53 52 50 50 48 44 41 43 54 58 54 54 52 50 53 50 45 42 41 41 41 39 38 39 37 34 33 33 32 31 30 30 29 28 26 25 24 23 22 21 22 22 21 19 18 18 18 18 19 19 19 19
87 70 67 63 59 63 63 62 65 66 64 64 64 60 57 56 55 58 58 59 60 59 59 59 59 59 58 58 58 57 54 52 51 51 54 55 53 53 51 51 49 47 45 40 47 57 55 54 53 50 52 52 48 46 44 43 42 40 39 39 37 35 34 34 33 32 31 31 30 28 27 26 25 24 23 22 22 22 22 20 18 18 18 19 20 20 19 19
92 78 66 58 55 61 64 63 63 65 66 64 65 63 60 56 55 56 58 59 61 61 60 60 60 59 58 58 58 56 53 53 53 52 54 54 52 53 52 52 51 50 48 42 42 51 55 54 51 51 53 52 49 47 46 45 42 41 40 40 38 37 36 35 34 33 32 31 30 29 28 27 27 25 23 23 23 23 23 21 19 19 19 20 20 21 20 19
96 88 70 55 52 58 64 63 62 63 65 63 64 65 62 58 56 55 57 59 61 61 60 60 60 59 59 59 57 54 52 54 54 53 55 55 53 53 54 52 52 51 48 45 41 44 52 55 52 52 54 53 50 48 47 45 43 43 43 41 40 39 37 36 35 34 34 32 31 30 29 29 28 26 25 25 25 24 23 21 21 20 20 21 21 21 20 20
97 95 77 58 50 56 63 62 63 65 65 64 63 64 62 59 57 54 57 60 61 62 62 62 62 61 60 59 57 54 53 54 54 54 55 55 54 53 55 54 53 51 48 46 43 41 49 55 53 53 55 54 50 48 47 45 45 45 44 43 42 41 39 38 37 36 35 34 32 31 31 29 28 27 28 27 26 25 24 22 21 21 21 22 22 22 21 21
96 98 83 65 53 55 60 60 64 67 66 66 65 63 60 58 56 55 58 62 62 63 63 62 62 63 61 60 58 56 55 55 54 55 55 54 53 53 55 55 54 51 48 47 44 42 49 55 54 54 57 55 51 49 48 47 47 47 45 44 43 42 41 40 40 39 38 36 34 33 32 29 29 30 28 27 26 25 24 23 22 22 23 23 23 23 22 21
93 98 88 75 59 52 56 59 63 66 67 68 66 62 59 57 55 55 59 62 62 64 64 63 63 63 62 60 59 57 57 57 55 56 56 53 52 53 54 55 54 51 48 46 45 45 50 54 54 55 58 55 52 51 49 49 49 49 48 46 46 45 43 41 41 41 39 37 36 34 32 31 32 31 28 27 27 26 25 24 24 24 23 24 24 23 22 21
89 97 93 83 67 53 52 57 61 64 66 67 66 63 58 56 55 56 61 63 64 67 66 65 64 64 64 61 59 58 58 58 56 56 56 54 52 52 52 54 54 51 48 45 43 46 51 54 55 57 58 56 54 53 50 50 51 51 50 49 48 46 45 43 42 41 40 38 37 35 33 33 33 31 28 29 28 26 25 24 25 25 25 25 24 23 23 21
83 93 94 90 78 62 53 54 56 60 65 66 64 63 60 58 56 58 63 66 67 68 67 67 66 64 64 61 59 59 59 58 57 56 56 55 53 51 51 53 55 52 49 45 42 46 52 54 56 57 58 57 55 54 52 53 53 53 52 50 48 47 46 45 43 42 41 40 38 36 34 34 33 31 29 29 29 27 26 25 25 26 26 26 25 24 22 21
78 85 88 90 85 71 57 52 52 57 65 66 64 63 61 60 59 60 65 68 69 70 68 68 66 64 64 61 58 58 58 57 57 57 57 56 54 52 51 53 56 53 51 46 41 45 51 54 56 58 59 58 56 56 55 56 56 55 53 51 49 47 46 45 45 43 42 40 38 36 35 35 33 31 30 30 30 28 27 26 27 27 27 26 25 24 22 20
74 78 79 83 85 76 62 53 50 55 64 65 64 65 62 62 64 64 66 69 71 71 70 69 68 67 65 60 57 57 56 55 55 55 57 57 54 52 50 52 57 55 53 48 41 43 51 53 57 60 59 58 58 58 57 56 56 56 54 53 50 49 48 45 44 43 41 39 38 36 35 35 33 32 31 31 30 29 28 28 28 28 27 26 25 24 22 21
70 72 73 77 81 77 68 58 52 55 61 63 62 64 65 66 67 66 67 69 72 71 70 68 66 65 60 56 56 56 55 54 54 54 57 58 54 51 50 52 56 56 55 51 42 42 49 55 59 60 60 59 57 57 56 55 55 55 53 52 51 49 48 46 44 43 42 41 39 37 35 35 34 33 33 32 32 32 30 30 29 29 28 27 26 25 23 21
68 68 69 74 78 75 71 65 59 57 59 63 63 65 70 71 72 72 71 70 69 67 64 62 62 61 56 55 57 56 55 56 55 54 57 58 53 50 50 51 56 57 54 50 43 41 49 57 59 59 58 58 57 57 56 55 55 55 54 52 51 49 46 45 45 44 43 42 41 38 36 37 37 35 35 36 36 34 31 30 29 29 28 28 27 26 24 22
67 66 66 71 76 74 70 66 65 62 58 59 64 66 69 71 71 69 65 64 66 65 62 61 61 61 58 57 56 55 56 57 57 55 55 56 52 49 50 51 55 56 52 48 44 44 51 58 58 57 57 58 59 59 57 56 56 56 55 54 52 50 47 46 46 45 44 43 41 40 39 40 39 37 38 38 36 33 31 30 30 30 30 29 28 26 24 23
66 65 64 67 71 73 70 64 62 63 59 55 59 64 66 65 62 60 55 56 62 64 64 63 62 62 60 59 56 55 56 55 56 56 56 57 52 49 50 50 54 54 50 46 45 47 51 55 57 55 57 59 60 60 57 56 57 57 57 56 54 51 49 48 48 47 46 44 43 42 42 41 40 39 40 39 36 34 33 32 32 32 31 30 28 26 25 23
66 65 63 62 64 68 71 66 60 61 60 53 50 58 66 65 62 62 59 58 61 65 68 68 65 64 63 60 56 54 54 53 53 53 55 56 51 48 49 50 53 56 51 45 44 45 46 51 56 56 58 62 62 61 59 57 58 58 58 57 55 52 51 50 49 48 48 46 45 44 43 43 42 43 42 39 37 36 36 35 34 33 32 31 29 27 25 24
67 65 62 60 61 66 69 68 64 60 58 51 46 51 61 65 64 65 62 60 63 66 70 72 69 67 65 61 56 53 52 51 51 51 51 51 48 47 48 49 53 57 55 47 41 40 44 51 55 56 60 64 65 62 60 59 59 59 59 57 55 53 51 50 49 48 48 47 46 45 45 45 45 45 42 39 38 38 38 36 35 33 32 31 30 28 26 25
66 64 62 59 60 64 66 67 68 65 59 55 53 50 52 61 65 65 61 61 64 66 67 70 71 70 67 63 58 55 52 51 51 52 50 47 46 47 48 49 51 55 58 55 45 39 46 55 53 54 62 65 66 65 61 59 60 60 59 57 55 53 51 50 49 49 49 48 47 46 48 47 46 46 42 39 40 40 39 38 36 34 34 33 31 29 28 27
66 64 62 59 59 64 66 64 65 65 61 58 57 51 47 55 65 65 61 59 63 66 65 66 69 70 68 63 59 56 54 54 53 52 51 49 47 48 49 49 50 53 56 57 53 42 44 55 54 53 62 67 67 67 62 59 60 60 59 57 55 53 51 51 51 50 50 49 48 48 49 47 46 45 42 41 42 41 40 39 37 36 36 34 32 30 29 29
66 64 62 60 61 66 68 65 62 62 61 58 57 52 46 51 63 67 63 60 62 65 64 65 66 67 66 63 61 59 56 55 55 54 52 51 51 51 50 49 50 53 54 55 57 47 40 50 55 53 60 67 68 68 64 60 61 61 59 57 55 53 52 52 51 51 51 49 48 49 50 49 47 46 45 44 43 42 41 39 38 37 36 34 33 32 31 30
66 64 62 62 62 62 64 65 64 62 61 59 56 53 49 51 60 67 66 64 66 66 63 64 66 66 65 62 62 62 56 52 55 56 53 52 53 52 50 49 48 51 53 53 55 51 42 45 50 51 57 65 67 66 64 61 61 60 57 56 55 53 52 51 50 51 51 51 51 51 51 51 49 47 46 46 45 43 41 39 38 37 35 35 34 33 32 32
66 65 63 64 63 61 61 62 63 64 63 62 59 56 53 53 60 65 66 67 69 68 64 64 66 67 65 63 62 62 57 51 53 55 56 56 54 51 50 48 47 49 51 51 51 51 47 44 45 48 54 61 64 66 64 61 61 59 56 56 55 53 53 52 51 51 52 53 53 52 52 53 51 48 48 48 46 44 41 39 39 38 37 36 35 33 33 33
66 66 65 67 67 66 64 61 62 65 63 61 59 57 55 57 63 65 65 68 70 68 67 66 66 66 64 63 61 60 57 54 53 55 57 58 55 53 51 49 47 47 48 50 50 51 51 45 42 44 50 58 65 68 65 62 60 58 56 56 55 54 54 54 54 53 54 56 55 54 54 54 54 51 49 49 46 44 42 41 40 39 38 36 35 35 35 35
67 68 67 67 66 65 66 64 62 63 61 58 58 59 58 60 66 69 69 71 70 68 68 68 67 66 63 62 60 56 55 57 59 58 57 57 54 53 53 51 49 47 46 48 49 50 52 48 41 40 44 57 68 70 66 64 61 58 56 56 55 55 55 55 55 56 58 59 56 55 55 56 57 54 50 49 47 44 44 43 41 39 38 37 37 37 37 37
67 69 67 66 64 63 65 63 61 61 59 58 60 63 62 63 67 73 74 72 71 69 70 69 68 66 62 61 59 54 54 58 60 59 57 54 52 51 50 49 49 48 47 47 47 48 51 49 43 38 42 55 69 72 69 67 65 61 59 58 56 56 57 57 58 59 60 60 57 56 56 58 59 55 51 49 47 45 44 43 42 41 40 39 39 39 39 38
68 69 67 67 66 66 66 63 61 62 61 60 64 65 67 68 71 76 76 74 70 69 69 68 66 65 63 63 60 54 52 53 53 54 54 50 47 47 47 45 44 44 43 42 44 47 50 50 44 39 41 52 66 74 72 71 70 67 64 62 59 59 60 60 60 61 62 62 59 58 58 60 60 56 52 49 46 46 45 43 42 41 41 41 40 40 39 38
71 70 68 68 67 66 65 62 61 61 62 66 69 68 70 72 74 76 76 74 70 68 68 67 66 66 66 65 59 52 49 47 46 48 50 49 47 45 43 41 40 40 39 39 40 42 46 49 46 41 41 48 60 70 73 72 71 69 66 62 59 60 60 60 60 61 62 61 59 58 59 61 61 56 52 49 46 45 44 43 42 42 42 42 42 41 40 39
75 73 71 70 68 67 65 62 61 62 65 70 71 72 74 74 72 73 75 74 71 69 68 67 67 67 69 68 60 51 49 50 48 46 47 46 44 42 41 39 37 37 37 38 39 39 41 45 45 42 41 44 56 68 73 70 67 66 65 62 59 59 59 58 58 58 59 59 59 59 60 60 59 55 51 49 47 45 44 43 43 43 43 43 42 42 41 41
75 73 73 71 69 69 66 65 65 65 66 69 71 71 70 69 67 69 74 74 71 71 71 68 68 68 70 70 65 56 53 54 51 48 47 45 42 40 38 36 35 35 35 35 37 38 39 41 44 44 42 43 53 66 73 71 68 67 66 64 61 59 59 58 57 58 58 59 60 61 61 60 58 55 52 50 49 47 45 44 43 43 43 43 42 42 42 42
76 72 72 71 70 69 66 66 67 67 65 67 69 66 62 65 67 69 74 75 71 70 72 72 71 70 69 69 65 59 55 55 53 49 46 45 44 41 37 35 34 34 34 35 36 37 39 41 43 44 44 44 51 62 71 72 70 68 67 65 61 59 59 60 59 60 60 62 64 63 62 61 59 58 56 52 50 47 45 44 43 44 43 43 43 43 43 43
77 72 70 70 69 68 66 67 68 68 66 66 65 61 62 68 71 70 72 72 70 69 71 72 70 69 69 67 64 59 54 53 54 51 47 45 42 40 37 36 35 35 36 36 37 37 38 40 42 44 45 47 52 62 70 71 70 68 66 64 61 59 61 62 61 62 62 64 65 65 63 62 61 59 56 52 48 46 45 44 43 43 43 44 44 45 45 44
74 72 71 70 69 68 67 68 69 69 67 64 62 61 65 71 72 71 69 67 67 69 69 69 67 67 67 66 64 60 56 53 52 51 51 47 41 38 36 35 36 36 37 38 39 39 39 40 41 43 45 48 54 62 68 71 72 69 66 63 61 60 62 62 61 62 62 62 64 64 64 63 61 58 54 50 47 45 44 44 43 42 43 44 45 46 46 46
71 71 72 71 69 69 69 69 70 71 68 64 61 61 64 67 70 69 67 65 65 67 68 67 66 65 64 64 63 61 58 56 51 49 51 49 42 39 38 37 36 37 37 38 40 41 40 40 41 43 45 49 52 55 62 69 72 70 68 66 64 64 64 62 62 62 62 62 63 63 64 63 60 56 51 48 46 45 44 43 42 43 43 43 44 45 46 46
72 71 71 71 69 70 72 73 71 70 68 66 64 63 64 65 66 65 64 65 65 65 66 66 65 64 63 62 63 61 59 57 54 51 51 49 43 40 39 38 38 39 40 40 41 42 41 41 42 43 45 47 48 51 58 67 69 67 67 66 65 64 63 62 62 64 64 63 63 63 64 63 59 53 49 47 45 45 44 44 43 43 43 43 44 45 46 46
71 71 72 72 71 71 73 73 70 68 70 70 67 65 65 65 64 64 63 65 66 65 64 64 64 63 61 60 60 60 58 57 55 53 52 49 43 39 39 39 39 39 39 40 40 41 41 41 42 43 44 45 47 52 58 64 66 65 65 64 62 60 60 60 62 63 62 62 62 63 63 63 59 53 49 47 45 43 43 43 43 43 44 44 44 45 45 45
70 70 70 70 70 71 71 72 72 72 71 70 68 67 67 65 65 65 65 67 68 66 64 64 63 62 60 58 56 56 55 54 54 54 53 50 45 42 40 39 38 38 38 39 39 40 40 41 42 43 43 44 46 50 56 61 64 65 66 65 63 62 60 58 59 59 58 58 59 60 62 63 60 55 50 48 45 42 41 42 42 43 44 44 44 44 44 45
71 70 70 71 72 72 72 73 75 73 70 69 69 68 67 66 65 65 66 67 68 68 65 64 64 62 59 57 55 55 54 54 53 52 52 49 45 44 41 38 37 38 38 37 37 38 40 41 43 44 45 46 47 49 53 57 60 64 67 68 66 64 61 58 58 58 57 59 59 60 64 64 60 56 52 48 44 42 41 41 41 41 42 42 43 43 43 44
74 72 71 73 75 74 74 75 73 71 69 69 68 66 66 66 65 64 64 66 67 67 65 64 63 62 59 57 55 55 54 54 52 51 51 48 45 44 41 38 36 36 35 34 34 35 37 39 41 43 45 46 45 45 47 51 56 62 67 69 67 64 61 58 57 57 58 60 61 63 66 63 56 53 51 47 44 43 42 41 40 40 41 41 42 43 43 44
75 75 74 76 78 77 74 73 70 69 69 68 67 66 66 66 65 65 65 66 67 66 64 63 63 63 61 58 57 56 55 55 53 50 48 46 43 43 41 38 37 36 35 34 33 34 36 37 38 39 40 40 39 41 42 46 53 59 63 65 64 62 59 56 55 56 56 57 59 62 64 59 52 51 49 45 42 42 41 39 39 39 40 42 43 43 44 43
72 73 72 72 75 76 75 73 70 67 67 67 67 67 66 64 64 66 67 67 67 65 64 62 62 62 61 59 58 57 55 55 54 50 47 44 41 41 40 38 38 38 36 35 36 35 36 36 36 35 36 37 38 39 39 40 44 50 55 59 59 56 55 53 54 56 56 56 60 62 60 58 54 50 48 43 39 40 40 40 41 41 41 43 43 43 43 43
74 72 69 66 65 67 68 68 68 67 66 66 67 66 65 64 64 65 66 67 67 66 65 63 61 60 60 58 58 57 57 56 54 52 49 45 43 41 40 39 39 38 37 37 37 36 36 35 34 35 37 38 40 40 40 39 40 43 48 53 54 53 52 53 55 56 56 59 64 62 58 59 57 50 47 44 40 40 42 44 45 43 42 41 41 41 42 42
74 71 68 64 60 57 58 61 65 67 67 66 65 64 62 61 61 62 64 65 67 67 66 64 62 60 58 57 56 56 57 56 55 53 50 47 45 43 42 42 41 39 38 37 37 36 36 36 36 36 37 39 41 41 41 42 42 43 45 48 52 53 53 54 56 57 58 61 65 61 58 60 58 50 47 46 43 43 44 45 45 43 41 41 41 42 43 44
70 68 66 63 61 59 60 64 67 69 69 67 65 62 60 58 58 60 62 64 66 66 65 64 61 59 58 57 56 55 54 52 51 50 49 48 47 45 45 43 42 41 40 39 39 37 37 38 39 38 39 41 41 42 43 44 44 46 46 47 50 52 55 58 61 62 63 65 66 63 62 64 59 51 48 47 45 45 45 44 44 43 43 44 45 46 47 47
67 65 65 64 63 62 63 66 69 71 70 68 66 62 60 59 57 58 61 64 65 64 63 63 61 59 57 56 56 55 52 49 47 45 44 43 42 42 43 43 42 42 41 41 41 40 40 41 41 41 42 43 42 43 44 44 45 48 49 49 49 51 53 55 58 61 63 64 64 64 66 66 59 50 46 46 48 48 48 46 46 46 47 47 48 49 49 50
67 66 66 66 65 63 64 66 68 70 70 68 66 62 60 59 58 60 63 65 66 64 61 59 59 58 57 56 55 52 49 46 44 41 39 36 35 37 39 39 39 40 40 41 42 42 42 42 42 42 42 43 44 44 44 44 47 48 46 44 45 48 50 51 52 54 55 56 59 60 61 60 54 47 46 47 50 51 50 49 49 50 50 51 51 51 50 50
Wind_Direction
204 205 206 207 209 210 212 213 214 215 218 220 221 220 219 219 219 219 218 218 217 216 213 212 211 210 210 210 210 210 211 212 210 209 213 216 218 220 221 217 209 206 207 209 211 207 204 209 212 214 219 220 219 218 216 213 211 211 211 209 206 206 204 203 207 209 206 207 207 199 191 187 185 178 172 172 173 168 160 157 154 146 143 143 143 142 138 136
201 203 203 203 205 207 210 211 212 214 217 219 221 221 220 219 219 219 218 217 216 215 213 212 211 210 209 210 211 211 211 212 211 209 213 216 217 220 220 219 214 209 208 209 211 207 206 210 211 213 218 219 218 218 216 214 211 211 211 209 206 206 203 201 206 207 205 207 208 202 195 191 186 181 177 175 175 172 166 164 158 149 148 148 147 146 143 141
197 200 200 200 202 205 207 209 210 212 215 216 219 221 220 220 219 218 218 217 215 214 213 212 211 210 209 209 211 212 210 212 211 209 214 216 216 219 219 221 218 212 210 209 210 209 209 210 210 213 218 218 216 216 217 215 212 211 211 208 207 206 202 201 204 205 203 206 208 201 195 193 188 184 180 178 178 175 170 168 162 154 152 152 152 151 147 144
195 198 200 200 201 203 205 206 208 211 212 214 217 219 219 219 219 218 217 216 214 213 213 211 211 210 209 209 211 212 211 212 211 209 215 217 216 219 218 220 219 213 212 210 209 211 211 210 209 214 219 218 214 213 216 216 214 212 210 209 209 206 201 201 204 204 202 204 209 203 196 194 191 187 181 180 182 179 176 173 167 161 156 155 156 155 151 147
194 196 199 200 201 203 204 204 207 209 210 212 215 217 219 219 218 217 216 216 214 213 212 211 210 210 209 210 211 211 211 212 210 210 215 216 216 218 218 220 220 214 213 211 210 211 212 210 209 214 219 216 212 213 215 216 216 214 210 209 210 206 202 202 203 204 201 202 208 204 198 196 193 187 183 184 185 185 184 178 172 167 160 159 159 159 157 151
194 195 197 197 199 202 203 203 205 208 210 211 213 216 217 218 217 216 215 214 213 212 212 210 210 209 209 210 211 211 211 211 209 210 214 216 216 217 218 220 220 216 213 212 211 212 212 210 209 213 217 216 214 214 214 215 216 214 211 212 211 205 203 204 203 203 200 200 206 205 201 197 192 188 186 186 188 189 190 184 176 172 166 163 162 162 160 156
198 193 195 195 196 200 201 202 204 207 210 211 213 215 216 216 215 214 213 212 212 211 211 209 208 209 208 210 211 211 211 209 209 211 214 217 216 217 219 220 220 218 216 214 212 214 213 211 210 212 215 217 215 213 213 214 214 213 212 214 212 206 205 206 204 203 201 202 205 205 202 197 193 191 188 189 191 192 195 190 180 177 173 167 165 165 164 162
205 193 192 193 193 196 200 201 201 204 207 210 212 214 216 215 214 213 212 210 210 210 210 209 208 209 209 210 212 211 210 209 210 211 214 217 217 217 219 222 222 218 218 218 213 215 215 211 211 213 214 215 213 210 211 212 213 212 212 214 212 207 206 206 206 204 202 204 206 206 203 197 195 194 191 192 195 195 196 195 186 182 177 171 168 169 170 167
208 196 189 190 189 193 198 200 199 200 204 209 211 212 214 214 213 212 211 209 209 209 209 208 208 209 209 210 212 212 209 210 213 213 215 218 217 217 219 221 222 219 221 222 215 216 216 212 213 213 213 215 211 207 209 211 211 211 212 214 213 208 206 206 208 206 204 206 207 207 205 199 197 196 194 195 199 200 199 197 191 187 181 176 173 173 174 171
209 200 190 189 186 189 196 200 200 200 202 208 211 212 213 214 212 211 210 207 207 207 207 208 208 209 210 210 212 211 209 211 213 214 217 219 218 217 218 220 222 222 224 225 219 217 215 214 215 213 213 214 211 206 207 209 208 209 211 213 213 210 207 206 208 207 205 207 208 208 207 202 199 198 196 197 202 205 203 198 195 192 185 180 179 177 176 173
210 204 195 190 186 186 192 198 202 203 204 206 210 212 213 214 212 209 207 205 206 206 206 207 208 209 210 211 212 210 209 212 213 213 216 219 218 218 218 220 222 224 225 225 223 219 215 216 215 211 212 214 210 205 206 206 205 208 211 211 212 211 207 206 207 207 207 208 209 208 208 205 201 200 199 199 203 207 206 200 196 194 189 185 183 181 178 175
210 208 200 190 186 185 189 196 200 204 205 205 209 211 212 213 212 208 204 203 205 205 205 206 207 208 209 210 211 210 210 213 214 215 217 219 219 217 218 220 222 224 225 224 224 222 218 217 214 209 211 213 209 205 204 203 205 208 210 210 211 211 208 205 205 207 207 208 209 209 209 207 203 203 202 202 204 208 208 204 198 195 193 190 187 184 181 177
210 210 203 192 186 185 189 194 198 202 203 203 206 209 209 210 211 207 203 202 204 204 205 206 207 208 209 209 209 209 210 213 214 215 218 220 220 218 218 219 222 224 226 223 223 223 219 217 213 208 211 212 209 206 203 202 204 208 210 210 211 211 208 205 204 205 206 208 210 209 209 207 207 207 204 203 207 209 209 208 202 197 196 194 191 187 182 178
210 210 207 198 188 184 188 192 196 199 201 202 204 206 206 208 209 205 202 202 203 204 206 207 207 208 209 209 208 209 211 213 213 215 218 219 220 220 219 219 221 224 226 224 223 221 217 216 212 208 210 211 209 207 203 201 204 207 209 210 210 210 208 206 205 205 205 208 211 211 208 207 209 209 204 204 208 209 209 209 205 199 197 197 194 189 184 180
209 210 209 204 193 188 192 191 193 198 202 204 205 206 206 208 209 203 202 203 203 204 205 206 208 208 209 208 208 209 211 214 213 215 219 219 219 220 219 220 220 223 225 225 225 221 216 215 211 208 209 210 208 206 202 202 205 208 210 210 210 210 208 206 206 206 206 208 212 212 209 209 211 208 205 205 207 208 208 208 206 200 198 198 196 191 187 183
207 209 211 209 201 196 195 190 192 198 202 205 205 206 207 208 208 202 202 204 203 204 205 206 207 208 209 208 207 209 211 214 214 215 219 220 219 218 218 219 219 222 223 224 225 219 215 214 210 207 209 209 208 205 202 204 207 209 211 212 211 210 209 206 206 207 207 208 211 212 211 211 212 209 206 207 208 207 205 205 206 202 199 198 197 194 190 185
205 208 211 213 208 202 195 190 194 198 201 204 204 205 205 206 206 203 204 206 204 204 204 206 207 208 209 207 207 210 212 215 215 215 219 220 219 219 218 219 219 221 223 224 224 218 214 213 209 207 210 210 208 204 203 206 209 210 212 212 211 211 210 208 207 207 208 210 212 213 213 213 212 209 207 208 209 207 203 203 203 203 202 199 198 196 193 190
203 207 209 212 211 206 197 190 193 197 199 201 203 204 204 204 204 203 204 206 205 204 204 205 206 207 208 205 206 210 212 215 217 216 219 221 220 218 218 219 219 220 223 226 225 219 215 212 210 209 209 209 208 208 208 209 211 212 212 212 210 210 210 209 209 209 210 212 214 215 215 215 212 209 208 209 209 207 204 203 202 202 203 201 200 200 199 197
201 204 206 209 210 207 202 196 193 194 195 198 201 203 203 202 202 203 205 206 205 203 204 205 205 208 210 206 206 210 212 214 216 216 219 222 220 218 218 218 219 220 224 227 226 222 216 212 210 210 210 210 210 211 210 208 210 213 214 213 212 210 210 208 209 210 211 211 213 215 216 218 215 209 209 209 209 208 205 203 202 202 204 204 204 205 204 204
199 201 204 207 208 207 205 203 200 197 194 197 200 199 200 201 200 202 204 205 205 204 204 205 206 209 209 207 207 210 212 214 215 216 219 222 220 217 218 218 218 220 224 228 227 223 218 213 211 211 212 212 211 209 208 206 208 211 214 214 213 212 211 209 209 211 211 212 212 213 213 216 215 210 208 209 208 208 205 204 203 204 206 208 209 209 209 210
198 199 201 205 207 205 205 204 203 202 198 199 202 202 202 203 203 205 205 203 202 203 204 207 209 208 206 207 209 210 213 215 215 215 218 222 221 217 218 219 218 220 224 226 224 221 218 213 211 211 212 213 211 207 206 206 207 210 212 213 212 211 210 210 211 212 213 213 213 213 213 215 215 212 211 210 208 207 205 205 206 207 209 211 214 215 215 216
196 197 199 203 205 204 204 203 202 201 200 200 202 204 205 205 207 209 210 206 202 200 203 207 209 208 207 207 207 209 212 214 216 216 217 221 222 218 219 219 218 218 220 222 219 218 219 214 210 211 213 214 211 207 205 206 208 210 211 211 211 210 209 209 210 211 213 213 213 214 213 215 215 214 213 211 208 207 206 207 209 210 211 213 216 219 221 222
195 196 197 199 201 202 203 203 201 199 199 199 201 204 204 202 202 205 206 207 204 200 201 205 207 207 208 209 208 208 211 213 215 218 219 222 222 219 220 220 219 218 218 220 220 221 220 212 209 212 214 214 211 207 206 206 207 210 211 212 211 209 209 210 211 211 213 213 214 215 214 214 215 215 214 211 208 209 208 208 211 213 214 217 219 221 225 227
193 193 195 196 195 197 201 203 203 202 199 199 202 205 203 201 201 203 203 205 206 204 202 203 205 205 207 209 209 209 209 211 214 216 220 223 223 220 220 220 220 219 219 221 221 220 217 209 209 213 214 214 211 207 207 206 206 210 211 212 212 210 209 210 212 213 214 215 215 217 216 215 216 216 214 213 211 211 211 210 212 215 217 221 222 224 227 228
192 191 192 193 193 194 197 201 205 207 204 203 205 204 202 203 203 204 204 204 206 209 208 205 204 204 205 205 206 207 207 210 214 215 217 221 223 223 221 220 221 220 221 224 222 216 211 208 210 214 215 214 211 207 207 206 207 210 211 211 211 210 209 211 213 214 216 217 217 219 219 216 217 218 215 215 215 214 214 213 212 216 219 222 224 226 228 228
190 189 189 191 192 192 193 197 203 207 206 205 205 204 202 205 206 205 206 208 208 209 210 209 206 204 204 203 203 203 205 210 212 214 216 216 217 219 219 219 220 221 223 226 225 217 210 209 213 216 215 214 212 208 207 206 207 210 211 211 212 210 210 211 214 216 217 218 218 220 222 218 218 220 216 216 218 217 217 215 214 217 220 222 225 226 228 229
187 188 187 187 191 193 193 194 197 202 205 204 204 205 204 206 207 206 207 209 210 208 208 210 209 207 204 202 201 201 205 211 212 213 216 216 215 215 216 218 220 222 224 227 226 221 214 212 214 217 216 214 213 210 207 206 208 210 210 211 212 211 211 212 214 216 218 219 219 221 223 221 218 219 218 217 218 220 221 219 218 220 222 224 226 226 226 227
185 186 186 186 190 194 197 199 200 201 204 206 205 206 207 208 207 207 208 208 208 207 207 207 208 209 207 203 201 200 204 212 215 214 215 216 216 216 217 219 222 224 225 228 227 224 221 217 215 218 218 216 215 212 208 207 208 210 210 211 212 211 211 213 215 218 219 220 220 220 223 222 218 218 221 220 219 221 222 223 224 224 225 226 227 226 225 226
183 183 184 186 189 192 194 199 204 205 205 207 208 208 210 208 205 206 208 208 206 205 205 206 206 207 207 205 202 201 203 211 215 215 216 216 216 217 219 222 225 227 227 228 228 225 223 220 216 218 220 218 216 212 209 209 209 211 210 210 212 212 211 213 215 218 221 222 221 220 223 224 219 217 222 223 220 221 223 226 228 228 227 227 228 227 226 227
181 181 182 186 188 189 190 191 197 203 206 206 207 208 206 201 201 203 205 206 206 204 203 204 205 206 207 207 204 203 206 212 214 213 215 217 218 219 221 222 223 226 227 227 227 225 223 223 220 218 219 218 214 211 209 209 210 211 211 211 212 212 212 213 215 217 221 221 220 221 223 225 221 217 221 225 223 223 224 225 228 230 229 227 227 228 228 229
179 180 182 185 188 189 190 190 190 196 201 202 203 203 197 192 198 203 206 206 205 205 203 202 203 204 205 206 205 206 210 215 215 213 213 215 218 220 221 222 223 224 225 226 227 226 224 224 223 219 218 218 213 209 209 210 211 212 212 211 212 212 212 214 215 217 221 221 220 222 224 226 224 218 219 225 226 225 226 227 228 230 231 229 227 227 228 229
177 181 182 184 187 188 192 195 194 195 198 199 201 201 193 189 197 204 207 207 205 204 203 201 202 202 202 204 207 210 211 212 211 210 212 214 216 220 223 225 227 228 229 229 228 228 226 225 223 220 220 219 214 208 207 209 210 212 213 212 212 213 213 213 215 217 221 222 221 223 226 227 225 221 220 223 226 227 228 229 230 230 231 232 231 230 230 231
176 181 184 185 185 187 191 194 196 196 197 200 202 200 194 194 200 205 207 207 205 204 204 203 201 201 200 202 207 208 205 205 206 205 207 210 212 215 219 222 224 227 229 231 230 229 226 224 223 221 221 221 215 210 208 210 210 211 214 214 213 213 213 213 215 217 220 223 222 223 226 228 227 224 223 224 225 228 230 231 232 232 232 232 233 233 234 234
176 181 185 186 186 188 190 190 193 195 198 203 203 196 194 197 201 206 207 208 207 204 203 203 201 200 201 201 205 206 204 206 210 208 207 208 209 212 216 219 221 223 224 225 227 229 229 226 223 221 221 221 219 214 211 211 212 212 214 215 214 215 215 215 216 218 221 224 225 225 227 229 229 227 226 227 228 228 231 233 234 234 234 234 234 234 235 237
179 182 184 186 187 188 190 190 193 197 200 204 203 196 197 201 203 206 206 207 207 203 201 202 202 201 201 202 206 211 212 213 216 217 215 213 213 215 218 221 222 223 225 223 223 226 229 228 226 224 222 221 220 216 211 210 212 213 214 215 215 216 217 218 219 220 223 226 228 228 229 231 232 231 229 230 232 231 231 233 235 236 236 237 237 236 237 238
181 184 184 185 186 187 190 193 196 201 202 202 203 203 205 208 208 209 208 208 209 205 201 200 201 203 204 203 207 214 217 215 217 222 220 216 216 217 220 223 223 224 227 227 225 225 226 227 226 226 225 223 221 217 211 209 210 213 214 215 215 216 217 218 219 220 223 227 228 229 230 232 234 234 231 230 232 233 232 232 234 235 237 238 240 240 241 241
180 184 185 186 187 186 190 196 201 204 200 200 207 212 213 211 210 210 208 209 210 208 204 202 202 203 205 206 209 215 217 215 217 222 222 218 215 216 218 220 221 223 225 226 226 225 226 226 226 225 225 224 222 218 214 211 211 212 214 215 215 216 217 218 219 220 221 225 227 228 230 231 233 234 232 231 232 233 234 233 233 235 237 239 240 242 243 244
178 181 186 188 188 187 190 197 203 206 203 202 207 213 211 207 206 207 208 209 209 207 205 206 204 203 205 207 209 213 215 216 218 220 222 220 216 217 220 220 220 221 222 224 225 224 225 226 226 225 224 223 221 217 214 212 212 213 214 215 216 217 218 218 220 221 221 223 226 228 230 231 232 234 234 234 234 235 237 237 236 236 237 238 240 241 243 245
178 180 186 189 190 191 194 200 204 206 207 207 207 206 204 203 202 204 208 210 209 207 204 206 207 205 206 207 209 214 215 217 219 220 222 222 217 216 220 221 220 221 220 222 223 222 222 224 226 226 225 224 221 217 215 214 214 214 214 215 216 218 220 220 221 223 225 226 227 230 231 232 233 235 238 238 238 238 239 239 240 240 239 239 240 242 244 246
180 183 186 189 192 194 196 202 207 207 207 210 210 205 202 203 203 202 205 208 209 208 205 205 207 208 208 208 210 214 216 217 218 218 220 222 219 215 218 219 218 220 221 223 224 222 219 220 223 225 226 225 224 222 220 217 215 214 214 215 216 217 220 221 222 223 226 228 229 231 233 233 234 237 240 242 242 242 242 242 243 243 244 243 243 243 244 246
182 186 188 190 193 196 198 203 207 207 207 208 208 204 201 203 203 202 203 205 207 208 206 205 207 209 211 212 213 215 217 217 218 218 219 221 219 215 218 220 218 219 221 221 223 223 220 219 222 224 225 226 227 226 221 217 216 215 215 216 217 218 220 221 222 222 224 227 229 232 233 233 234 236 240 243 244 244 243 244 245 245 246 247 246 246 246 246
185 189 190 190 194 199 201 203 205 206 208 208 205 202 201 201 201 201 202 202 204 206 206 207 208 211 213 215 216 218 219 218 219 219 220 221 219 216 219 222 221 222 223 223 223 223 221 219 221 224 224 224 226 225 221 217 216 215 216 216 217 219 221 223 224 224 226 228 230 232 234 234 235 237 239 242 244 245 245 246 246 247 247 248 248 248 248 248
189 192 192 191 196 202 204 204 204 207 208 205 200 199 199 199 199 200 202 202 203 204 205 207 209 211 214 216 217 219 220 220 220 219 221 222 220 217 220 223 224 226 226 225 224 224 222 220 220 222 223 223 224 224 221 218 216 216 216 217 218 219 221 224 225 226 229 231 231 233 235 235 236 237 239 241 243 245 246 246 247 248 248 249 249 249 249 249
190 193 193 194 197 202 206 207 207 208 204 197 195 196 197 198 199 200 202 203 203 204 204 206 208 210 213 217 218 218 218 220 221 221 223 224 221 221 223 223 225 228 229 228 228 226 224 222 221 221 221 221 221 221 221 221 221 220 219 218 219 219 220 222 224 226 228 229 230 232 233 233 235 236 238 241 243 244 246 246 247 248 249 250 251 251 251 251
190 193 196 198 200 203 206 208 207 206 199 193 195 196 196 197 198 201 203 204 205 205 205 206 207 209 212 215 216 218 218 219 221 222 224 224 221 223 226 226 227 229 230 231 231 230 228 227 226 225 225 225 225 227 227 226 224 223 221 220 220 221 221 223 225 227 228 228 229 231 231 233 236 237 239 242 243 245 246 247 248 249 250 251 252 252 253 253
192 195 198 199 200 201 203 202 201 198 195 194 195 196 197 198 198 199 202 204 206 206 207 207 207 209 211 213 214 215 217 219 220 222 224 225 222 222 224 226 228 229 230 230 229 229 229 230 229 230 232 234 235 237 235 230 226 225 223 222 222 223 224 225 227 229 230 231 232 232 232 235 237 239 241 244 245 246 247 248 249 250 251 251 251 252 252 252
196 200 202 200 197 197 198 197 195 194 195 196 196 196 197 199 200 200 202 204 206 207 208 209 210 210 211 212 214 215 216 218 220 221 222 223 223 223 223 224 226 228 229 228 226 225 226 228 228 228 230 233 236 237 236 234 231 229 227 224 224 225 227 228 230 231 232 234 235 234 235 237 238 240 244 247 247 248 249 248 248 248 248 250 251 252 252 253
199 201 203 202 199 200 200 198 196 195 196 197 197 197 198 199 201 203 204 205 205 207 209 209 210 212 212 213 214 215 216 218 220 221 221 220 219 220 222 223 224 227 229 228 226 224 225 226 227 227 228 229 231 232 232 232 231 230 229 227 226 227 229 230 232 233 234 236 236 236 237 239 239 240 244 246 245 245 246 247 247 247 248 249 251 252 253 253
198 198 199 200 201 203 204 201 198 196 196 198 199 199 200 202 203 204 207 207 206 207 209 209 210 210 212 214 215 216 218 219 220 222 222 221 218 216 218 221 222 224 227 228 227 226 224 224 224 224 227 229 230 230 230 230 229 228 228 228 226 227 228 230 231 233 234 236 236 236 237 237 237 237 239 242 243 244 246 248 249 250 250 251 252 253 253 253
196 195 196 199 201 203 201 198 197 196 197 199 201 201 202 204 205 206 208 209 209 209 209 209 210 211 212 213 215 217 220 222 224 226 226 224 220 216 216 218 221 224 225 225 226 225 223 223 223 222 223 226 227 229 230 229 230 229 229 229 228 228 229 230 232 233 234 235 236 236 237 237 237 239 240 243 247 249 250 250 251 253 253 253 253 253 254 255
196 197 197 199 201 201 200 197 196 196 197 200 201 200 201 203 205 208 209 209 211 212 211 209 209 210 212 214 215 216 218 220 224 228 231 230 228 225 221 219 221 225 226 225 224 223 221 222 223 222 223 224 225 227 228 229 230 231 230 230 231 232 233 235 235 235 236 238 239 240 241 241 242 245 246 248 251 252 252 252 253 254 254 253 253 252 253 255
197 199 199 200 199 199 199 198 196 196 198 201 201 200 201 203 204 207 209 209 209 211 212 212 211 211 211 212 214 215 216 217 219 223 225 225 227 229 227 225 226 228 230 228 226 224 222 223 224 224 225 226 226 227 228 230 232 232 232 234 236 237 238 239 239 240 241 243 243 245 246 247 247 248 248 249 251 252 252 252 252 252 252 252 252 251 252 253
Height
5632 5639 5644 5648 5653 5660 5667 5673 5680 5685 5688 5691 5696 5702 5708 5713 5719 5724 5730 5735 5740 5745 5749 5754 5758 5763 5767 5771 5775 5778 5781 5784 5788 5791 5795 5799 5802 5805 5808 5810 5812 5815 5819 5822 5826 5830 5832 5836 5839 5841 5843 5846 5848 5849 5850 5852 5853 5855 5857 5859 5862 5864 5866 5868 5870 5871 5872 5874 5876 5876 5875 5876 5878 5879 5880 5881 5882 5883 5884 5884 5884 5884 5885 5886 5888 5888 5888 5888
5627 5634 5639 5643 5649 5655 5662 5668 5675 5679 5682 5687 5691 5697 5703 5709 5715 5720 5725 5731 5736 5740 5745 5750 5754 5759 5763 5767 5771 5774 5778 5781 5784 5788 5792 5796 5799 5802 5805 5807 5809 5812 5817 5820 5823 5827 5830 5833 5837 5839 5841 5843 5846 5847 5849 5850 5852 5854 5856 5859 5861 5863 5865 5867 5868 5870 5871 5873 5874 5875 5876 5876 5878 5879 5880 5881 5882 5883 5884 5884 5884 5884 5885 5887 5888 5889 5888 5888
5622 5628 5633 5637 5643 5650 5656 5662 5669 5672 5678 5683 5687 5692 5698 5704 5710 5715 5721 5726 5731 5736 5741 5746 5751 5756 5760 5764 5767 5770 5774 5777 5781 5786 5790 5793 5796 5799 5803 5805 5807 5810 5814 5817 5821 5824 5827 5831 5834 5836 5838 5841 5843 5845 5847 5849 5851 5853 5855 5858 5860 5861 5864 5865 5866 5868 5869 5871 5873 5874 5875 5877 5878 5879 5880 5881 5882 5883 5884 5885 5885 5885 5886 5887 5888 5889 5889 5889
5614 5621 5626 5632 5639 5645 5651 5656 5662 5667 5673 5678 5682 5687 5692 5699 5704 5711 5716 5722 5727 5732 5737 5742 5747 5752 5756 5760 5763 5767 5771 5774 5779 5785 5787 5790 5794 5797 5801 5803 5805 5808 5811 5815 5818 5821 5825 5829 5832 5834 5836 5838 5841 5843 5845 5848 5850 5851 5854 5857 5858 5860 5862 5864 5865 5867 5868 5870 5872 5873 5875 5876 5878 5879 5880 5881 5882 5883 5883 5884 5885 5885 5886 5887 5889 5889 5889 5889
5606 5614 5622 5628 5635 5640 5645 5650 5656 5663 5669 5674 5679 5684 5689 5694 5700 5706 5712 5717 5723 5728 5733 5738 5743 5748 5752 5756 5759 5763 5767 5771 5778 5782 5783 5787 5791 5794 5798 5800 5802 5806 5809 5812 5816 5819 5822 5825 5830 5832 5834 5836 5838 5841 5844 5846 5849 5851 5854 5855 5855 5858 5861 5862 5864 5865 5867 5869 5871 5872 5874 5875 5877 5879 5880 5881 5882 5882 5883 5883 5884 5885 5886 5887 5889 5890 5890 5889
5600 5610 5618 5624 5630 5635 5640 5646 5652 5659 5664 5670 5674 5679 5685 5690 5696 5702 5708 5713 5719 5724 5729 5734 5739 5743 5748 5752 5755 5760 5763 5769 5776 5778 5780 5784 5788 5792 5795 5797 5799 5803 5806 5809 5813 5816 5819 5823 5827 5830 5831 5834 5836 5839 5842 5844 5847 5850 5852 5852 5854 5857 5859 5860 5862 5864 5865 5867 5869 5871 5872 5874 5876 5878 5879 5880 5881 5882 5883 5883 5884 5884 5885 5887 5888 5889 5890 5890
5594 5605 5613 5618 5624 5630 5636 5642 5649 5655 5660 5666 5670 5675 5680 5686 5692 5698 5704 5710 5715 5720 5725 5731 5735 5738 5743 5747 5751 5755 5761 5768 5773 5774 5777 5781 5784 5788 5792 5795 5798 5800 5803 5806 5810 5813 5816 5821 5824 5827 5829 5831 5834 5836 5838 5841 5844 5848 5850 5850 5852 5856 5858 5859 5861 5862 5864 5865 5866 5869 5871 5874 5875 5876 5877 5878 5879 5881 5882 5882 5883 5884 5885 5886 5888 5889 5890 5890
5589 5599 5606 5612 5618 5625 5632 5638 5645 5652 5657 5662 5667 5671 5677 5682 5688 5694 5700 5706 5711 5716 5721 5726 5731 5734 5739 5743 5747 5752 5758 5766 5769 5770 5774 5777 5781 5786 5789 5793 5796 5798 5800 5804 5807 5810 5814 5818 5821 5824 5826 5828 5830 5832 5834 5837 5841 5845 5847 5848 5851 5855 5856 5858 5859 5861 5862 5863 5865 5868 5870 5872 5874 5875 5876 5877 5878 5880 5881 5882 5883 5884 5885 5886 5887 5888 5889 5890
5584 5592 5600 5605 5612 5620 5627 5634 5640 5648 5653 5658 5663 5669 5674 5679 5685 5690 5696 5702 5707 5712 5718 5722 5727 5730 5735 5740 5744 5750 5758 5764 5766 5768 5771 5773 5778 5782 5786 5790 5793 5795 5797 5800 5804 5807 5812 5816 5818 5820 5822 5824 5826 5828 5830 5833 5838 5843 5845 5847 5850 5853 5855 5856 5857 5859 5861 5862 5864 5867 5869 5871 5872 5873 5875 5876 5877 5878 5880 5882 5883 5884 5885 5886 5886 5887 5889 5889
5578 5587 5594 5599 5606 5615 5623 5630 5637 5643 5650 5654 5659 5665 5670 5676 5681 5687 5693 5698 5703 5708 5714 5718 5723 5727 5731 5735 5740 5748 5755 5758 5761 5765 5767 5770 5775 5779 5783 5787 5790 5792 5794 5797 5801 5806 5811 5813 5814 5816 5818 5820 5822 5824 5826 5830 5836 5840 5842 5844 5847 5850 5852 5854 5855 5857 5859 5861 5863 5865 5867 5869 5871 5872 5874 5876 5876 5877 5879 5881 5882 5883 5884 5885 5886 5887 5888 5888
5573 5580 5588 5595 5601 5610 5619 5626 5633 5640 5646 5651 5655 5661 5667 5673 5678 5684 5690 5695 5699 5705 5710 5714 5719 5723 5728 5732 5738 5746 5751 5752 5756 5760 5762 5766 5771 5775 5779 5783 5786 5789 5791 5794 5799 5803 5807 5808 5808 5810 5814 5816 5819 5820 5823 5828 5833 5836 5838 5841 5843 5846 5849 5852 5853 5855 5857 5859 5861 5863 5865 5867 5869 5871 5873 5873 5874 5876 5877 5880 5881 5882 5884 5885 5886 5886 5887 5888
5567 5573 5582 5590 5596 5606 5614 5622 5630 5636 5642 5647 5651 5657 5664 5670 5676 5682 5687 5692 5697 5701 5706 5710 5715 5719 5724 5729 5736 5743 5747 5748 5752 5756 5759 5763 5766 5771 5775 5778 5782 5786 5789 5792 5796 5799 5801 5801 5802 5807 5810 5812 5815 5817 5820 5825 5829 5832 5835 5838 5840 5843 5846 5849 5851 5852 5855 5857 5859 5861 5863 5866 5868 5869 5870 5872 5873 5875 5876 5878 5880 5881 5883 5884 5885 5886 5886 5887
5562 5568 5576 5584 5592 5601 5610 5619 5626 5632 5638 5643 5648 5655 5662 5667 5673 5679 5684 5688 5693 5698 5703 5707 5711 5715 5720 5725 5732 5738 5742 5744 5749 5752 5756 5760 5763 5768 5771 5775 5779 5783 5787 5790 5792 5795 5795 5794 5798 5804 5806 5809 5813 5814 5817 5822 5825 5828 5831 5835 5837 5840 5843 5846 5848 5849 5852 5854 5856 5859 5861 5865 5866 5867 5869 5871 5872 5874 5875 5877 5879 5880 5882 5883 5884 5885 5885 5886
5557 5564 5572 5579 5588 5598 5607 5615 5622 5629 5634 5639 5645 5652 5659 5664 5669 5676 5681 5685 5690 5694 5698 5702 5707 5712 5716 5721 5728 5734 5737 5740 5745 5749 5752 5757 5760 5764 5768 5772 5776 5780 5783 5786 5787 5789 5789 5790 5795 5799 5802 5807 5810 5811 5814 5818 5821 5824 5827 5831 5833 5836 5840 5843 5845 5847 5850 5852 5854 5857 5860 5862 5863 5865 5868 5870 5871 5873 5874 5876 5877 5879 5881 5883 5884 5885 5885 5885
5553 5561 5567 5574 5585 5596 5604 5611 5619 5625 5630 5635 5642 5649 5656 5661 5665 5673 5677 5681 5685 5688 5694 5699 5703 5707 5711 5718 5725 5729 5732 5736 5743 5746 5749 5753 5756 5760 5765 5769 5772 5776 5779 5782 5783 5784 5784 5786 5791 5796 5799 5803 5805 5806 5811 5815 5817 5820 5823 5826 5829 5833 5837 5840 5842 5845 5848 5850 5852 5855 5858 5860 5861 5864 5866 5868 5870 5871 5873 5875 5876 5877 5879 5882 5883 5884 5885 5885
5549 5556 5563 5569 5580 5591 5600 5607 5615 5621 5627 5632 5639 5646 5653 5657 5661 5669 5673 5675 5679 5683 5689 5694 5698 5704 5708 5715 5721 5725 5728 5733 5739 5743 5745 5749 5753 5756 5760 5763 5768 5772 5775 5777 5778 5779 5780 5783 5789 5793 5796 5798 5800 5803 5808 5811 5814 5817 5820 5823 5827 5831 5834 5836 5839 5842 5845 5847 5849 5853 5857 5858 5859 5862 5864 5866 5868 5870 5872 5874 5875 5876 5878 5880 5882 5883 5884 5885
5545 5552 5558 5565 5574 5586 5596 5602 5610 5618 5623 5628 5635 5642 5648 5652 5657 5664 5667 5669 5674 5679 5685 5691 5697 5701 5704 5711 5719 5722 5727 5731 5735 5740 5742 5745 5748 5752 5756 5760 5764 5768 5771 5773 5773 5775 5777 5781 5786 5789 5791 5795 5798 5800 5802 5806 5810 5813 5817 5821 5825 5829 5832 5835 5837 5840 5843 5845 5848 5852 5855 5857 5858 5861 5863 5864 5866 5868 5871 5872 5873 5875 5877 5879 5881 5882 5883 5884
5541 5547 5554 5561 5571 5582 5592 5598 5605 5613 5618 5625 5631 5638 5643 5646 5650 5656 5660 5662 5667 5673 5679 5684 5690 5693 5698 5710 5718 5721 5725 5729 5732 5736 5738 5740 5744 5749 5753 5756 5760 5764 5767 5768 5771 5772 5775 5779 5783 5785 5787 5791 5794 5796 5799 5804 5809 5811 5814 5817 5822 5825 5829 5833 5836 5839 5842 5845 5847 5850 5853 5855 5857 5859 5861 5862 5864 5866 5868 5869 5871 5873 5875 5877 5879 5881 5882 5882
5537 5543 5550 5558 5567 5578 5588 5594 5600 5608 5615 5621 5627 5632 5636 5639 5644 5651 5654 5655 5661 5667 5673 5681 5687 5693 5703 5713 5717 5718 5721 5724 5727 5731 5733 5736 5741 5746 5749 5752 5755 5760 5763 5766 5768 5770 5773 5776 5777 5780 5785 5790 5793 5796 5799 5804 5808 5811 5814 5817 5821 5824 5827 5831 5835 5837 5840 5842 5845 5848 5852 5855 5856 5857 5858 5860 5862 5863 5865 5867 5870 5872 5874 5876 5877 5879 5880 5881
5532 5539 5547 5554 5564 5574 5583 5590 5596 5603 5609 5614 5618 5621 5624 5627 5633 5638 5644 5653 5662 5671 5680 5688 5692 5697 5706 5712 5713 5714 5716 5719 5723 5728 5731 5733 5737 5742 5745 5748 5752 5756 5761 5764 5767 5769 5770 5771 5774 5781 5787 5790 5792 5794 5797 5802 5805 5809 5813 5816 5820 5823 5827 5830 5833 5835 5837 5839 5842 5846 5849 5851 5852 5854 5855 5856 5858 5860 5863 5866 5868 5870 5872 5874 5875 5877 5878 5878
5528 5536 5543 5551 5560 5570 5579 5586 5592 5599 5605 5611 5615 5619 5622 5626 5631 5638 5648 5658 5666 5674 5683 5688 5691 5696 5702 5707 5709 5711 5712 5716 5720 5724 5728 5730 5733 5738 5742 5745 5750 5755 5759 5761 5763 5764 5764 5767 5775 5782 5786 5788 5789 5790 5794 5798 5801 5805 5809 5812 5816 5820 5824 5828 5830 5832 5834 5837 5840 5843 5845 5847 5849 5852 5852 5853 5856 5859 5862 5863 5865 5867 5869 5871 5873 5875 5876 5877
5525 5532 5540 5548 5557 5568 5577 5584 5590 5597 5603 5608 5614 5620 5626 5633 5641 5650 5657 5660 5665 5672 5679 5682 5686 5692 5698 5700 5702 5704 5708 5712 5716 5721 5724 5726 5731 5736 5739 5743 5747 5751 5754 5756 5757 5758 5760 5767 5776 5780 5782 5784 5785 5787 5791 5795 5799 5802 5805 5808 5812 5816 5820 5823 5826 5828 5831 5833 5836 5839 5841 5844 5846 5848 5849 5851 5855 5857 5859 5860 5862 5864 5867 5869 5871 5872 5874 5875
5522 5530 5538 5546 5556 5567 5576 5582 5589 5594 5598 5605 5612 5618 5624 5633 5641 5646 5651 5656 5662 5666 5670 5674 5679 5686 5691 5695 5697 5701 5706 5710 5715 5719 5723 5725 5729 5734 5737 5740 5743 5746 5749 5752 5755 5757 5761 5769 5774 5776 5778 5779 5781 5784 5787 5791 5795 5798 5802 5806 5809 5813 5817 5819 5822 5825 5827 5830 5833 5835 5838 5840 5842 5844 5846 5849 5853 5854 5855 5857 5859 5861 5865 5867 5868 5870 5871 5873
5520 5528 5536 5545 5555 5565 5573 5580 5585 5590 5597 5605 5610 5615 5622 5629 5635 5640 5645 5653 5659 5661 5662 5664 5671 5678 5684 5689 5695 5700 5704 5708 5712 5717 5721 5724 5727 5730 5733 5736 5738 5742 5747 5750 5753 5756 5761 5767 5770 5771 5772 5774 5776 5780 5783 5788 5792 5795 5799 5803 5807 5811 5814 5817 5820 5823 5825 5827 5830 5832 5834 5836 5837 5840 5844 5848 5850 5851 5852 5854 5857 5860 5862 5864 5866 5868 5869 5870
5518 5527 5535 5542 5551 5562 5569 5573 5578 5587 5596 5601 5606 5613 5621 5627 5631 5637 5643 5648 5652 5656 5658 5660 5665 5670 5676 5683 5690 5697 5701 5704 5708 5712 5715 5719 5723 5726 5728 5731 5734 5739 5743 5746 5749 5752 5757 5761 5764 5765 5767 5770 5772 5776 5781 5786 5789 5792 5796 5801 5805 5809 5812 5815 5817 5819 5821 5823 5827 5829 5829 5832 5835 5837 5842 5846 5846 5848 5850 5852 5855 5857 5859 5861 5863 5865 5866 5867
5516 5525 5533 5541 5549 5557 5562 5567 5575 5584 5590 5597 5604 5612 5618 5623 5627 5633 5640 5643 5645 5650 5656 5661 5664 5667 5672 5679 5685 5691 5695 5697 5702 5706 5709 5712 5716 5719 5722 5727 5731 5735 5739 5741 5744 5748 5752 5756 5758 5760 5763 5766 5769 5773 5778 5783 5786 5789 5794 5798 5802 5805 5809 5811 5814 5816 5817 5820 5824 5825 5826 5829 5833 5835 5839 5842 5843 5845 5847 5849 5852 5853 5855 5858 5861 5862 5863 5865
5514 5522 5530 5538 5544 5550 5556 5563 5572 5580 5587 5596 5603 5609 5614 5618 5623 5629 5632 5634 5638 5644 5651 5657 5662 5667 5672 5676 5681 5685 5688 5693 5698 5702 5705 5708 5711 5714 5719 5723 5727 5731 5734 5737 5740 5745 5749 5751 5752 5755 5759 5761 5765 5770 5776 5780 5783 5786 5792 5795 5798 5802 5806 5808 5811 5812 5814 5817 5820 5821 5823 5826 5829 5831 5835 5837 5840 5842 5844 5846 5849 5851 5854 5856 5858 5859 5861 5862
5511 5519 5528 5536 5543 5551 5560 5566 5573 5580 5589 5596 5601 5606 5611 5615 5619 5622 5624 5625 5630 5639 5647 5652 5658 5665 5669 5672 5677 5681 5686 5692 5696 5699 5702 5706 5709 5712 5717 5721 5725 5728 5731 5735 5739 5744 5746 5746 5749 5753 5755 5758 5764 5770 5775 5778 5780 5784 5788 5791 5795 5799 5803 5806 5808 5810 5812 5813 5815 5817 5819 5821 5824 5828 5831 5833 5836 5839 5841 5844 5847 5849 5852 5853 5854 5856 5858 5859
5508 5516 5526 5535 5543 5551 5559 5567 5574 5580 5585 5591 5597 5602 5607 5612 5615 5616 5617 5620 5627 5635 5643 5648 5653 5658 5664 5670 5675 5680 5684 5688 5692 5696 5699 5701 5705 5710 5714 5718 5721 5723 5727 5731 5735 5739 5741 5742 5745 5748 5751 5757 5764 5768 5771 5774 5777 5780 5784 5787 5791 5795 5799 5802 5804 5806 5808 5808 5811 5814 5816 5816 5820 5825 5827 5828 5833 5837 5840 5843 5844 5846 5848 5849 5851 5853 5855 5856
5507 5515 5523 5531 5537 5543 5552 5560 5568 5574 5580 5587 5594 5600 5603 5605 5606 5606 5606 5612 5623 5632 5637 5643 5650 5656 5662 5668 5674 5677 5680 5683 5688 5691 5692 5696 5701 5704 5707 5711 5715 5718 5723 5726 5729 5733 5736 5738 5740 5743 5748 5755 5759 5762 5766 5770 5773 5777 5780 5783 5787 5791 5795 5797 5799 5802 5802 5802 5807 5810 5812 5812 5815 5820 5823 5825 5830 5835 5837 5839 5840 5842 5844 5846 5848 5849 5851 5852
5505 5512 5520 5528 5534 5542 5548 5552 5559 5569 5577 5584 5590 5594 5596 5596 5597 5597 5600 5612 5623 5628 5632 5639 5646 5652 5660 5668 5673 5676 5677 5680 5683 5684 5687 5693 5697 5699 5701 5706 5711 5715 5718 5721 5726 5729 5732 5734 5737 5740 5745 5749 5752 5755 5761 5765 5768 5772 5776 5779 5783 5786 5790 5792 5795 5797 5796 5798 5804 5807 5808 5808 5809 5815 5821 5823 5827 5831 5833 5835 5837 5839 5840 5842 5844 5845 5847 5849
5503 5511 5519 5527 5535 5543 5548 5552 5560 5567 5574 5581 5584 5584 5586 5589 5588 5590 5600 5613 5619 5622 5630 5637 5642 5651 5660 5667 5672 5674 5675 5677 5679 5682 5688 5692 5695 5698 5702 5706 5710 5713 5716 5721 5725 5727 5729 5732 5735 5737 5741 5744 5746 5749 5754 5758 5763 5767 5771 5774 5778 5781 5784 5787 5789 5792 5792 5795 5801 5803 5803 5803 5804 5811 5818 5820 5823 5826 5829 5832 5834 5836 5837 5838 5840 5842 5844 5846
5503 5511 5518 5525 5532 5539 5545 5552 5559 5564 5570 5577 5577 5577 5580 5581 5581 5588 5601 5610 5615 5624 5634 5639 5645 5653 5658 5662 5666 5669 5672 5674 5677 5682 5686 5689 5692 5696 5699 5703 5707 5710 5715 5720 5721 5722 5725 5729 5732 5734 5736 5739 5742 5744 5748 5753 5758 5762 5766 5769 5772 5775 5778 5781 5784 5787 5788 5791 5796 5799 5799 5798 5800 5807 5814 5817 5821 5823 5825 5828 5830 5832 5834 5835 5837 5839 5841 5843
5502 5510 5516 5523 5531 5537 5543 5549 5554 5561 5567 5570 5569 5570 5574 5576 5580 5591 5602 5609 5618 5627 5632 5638 5645 5650 5653 5659 5664 5666 5668 5670 5674 5678 5680 5683 5687 5691 5696 5700 5704 5707 5711 5714 5716 5720 5723 5726 5729 5732 5733 5736 5739 5742 5747 5752 5756 5759 5763 5766 5769 5772 5775 5778 5781 5784 5786 5788 5792 5795 5795 5794 5797 5805 5811 5815 5818 5821 5823 5825 5827 5829 5831 5832 5834 5835 5837 5839
5499 5507 5514 5520 5527 5534 5541 5547 5552 5557 5561 5562 5563 5564 5567 5573 5582 5592 5599 5607 5615 5621 5627 5635 5641 5644 5648 5655 5660 5663 5665 5667 5672 5674 5677 5681 5687 5691 5696 5699 5703 5705 5707 5710 5714 5717 5720 5724 5728 5729 5731 5734 5737 5739 5743 5747 5751 5754 5758 5761 5765 5769 5774 5777 5781 5783 5786 5787 5789 5791 5792 5793 5796 5803 5809 5813 5815 5818 5820 5822 5824 5825 5827 5828 5830 5831 5833 5835
5495 5504 5511 5517 5523 5531 5537 5542 5547 5553 5555 5555 5556 5562 5570 5578 5586 5593 5600 5607 5612 5616 5622 5628 5634 5639 5644 5648 5652 5656 5660 5665 5669 5671 5675 5681 5685 5689 5694 5697 5700 5703 5706 5709 5712 5714 5717 5721 5724 5726 5728 5730 5733 5735 5738 5741 5744 5749 5753 5756 5762 5767 5769 5773 5776 5779 5781 5782 5783 5786 5788 5791 5794 5798 5804 5809 5811 5813 5816 5818 5820 5821 5823 5825 5826 5827 5829 5831
5491 5500 5508 5514 5521 5528 5534 5539 5543 5547 5549 5550 5555 5566 5576 5582 5587 5593 5599 5605 5610 5615 5618 5622 5627 5634 5640 5644 5649 5653 5657 5661 5665 5668 5673 5678 5681 5686 5691 5694 5698 5701 5704 5707 5709 5711 5714 5717 5720 5722 5724 5726 5729 5731 5735 5737 5740 5744 5748 5753 5759 5761 5763 5768 5770 5772 5774 5776 5777 5780 5783 5787 5789 5792 5798 5803 5806 5809 5812 5815 5817 5818 5820 5821 5822 5823 5824 5826
5489 5499 5507 5513 5519 5526 5532 5536 5539 5541 5544 5548 5557 5568 5574 5576 5582 5589 5595 5600 5606 5611 5616 5621 5627 5633 5639 5644 5649 5653 5656 5658 5661 5667 5671 5675 5681 5686 5689 5692 5695 5698 5700 5703 5705 5708 5711 5713 5715 5717 5719 5722 5724 5726 5729 5733 5736 5741 5746 5750 5753 5755 5759 5763 5764 5766 5770 5771 5773 5775 5778 5781 5784 5788 5794 5799 5803 5806 5809 5810 5813 5815 5816 5817 5818 5819 5820 5821
5489 5496 5503 5509 5517 5523 5528 5531 5534 5537 5541 5548 5557 5564 5568 5572 5578 5586 5592 5598 5603 5609 5615 5622 5629 5634 5638 5644 5649 5652 5654 5658 5662 5667 5670 5673 5680 5684 5686 5689 5692 5694 5697 5699 5701 5703 5706 5709 5711 5714 5716 5717 5718 5721 5724 5728 5732 5737 5741 5744 5749 5753 5756 5759 5762 5765 5767 5769 5771 5773 5774 5778 5783 5787 5792 5796 5800 5803 5805 5807 5809 5810 5812 5813 5814 5815 5816 5817
5487 5493 5498 5506 5513 5519 5524 5527 5529 5533 5541 5551 5557 5562 5568 5574 5579 5584 5591 5598 5603 5608 5615 5621 5628 5634 5638 5643 5646 5649 5653 5657 5661 5665 5668 5672 5677 5680 5683 5686 5689 5691 5694 5695 5697 5699 5702 5704 5707 5709 5711 5713 5715 5718 5722 5725 5729 5732 5735 5739 5743 5747 5750 5754 5758 5761 5763 5766 5768 5769 5770 5775 5781 5786 5789 5792 5796 5798 5800 5803 5804 5805 5807 5809 5810 5811 5812 5814
5484 5490 5495 5502 5508 5513 5517 5519 5524 5534 5544 5550 5555 5559 5565 5572 5577 5582 5589 5596 5602 5609 5616 5622 5627 5632 5637 5641 5644 5646 5650 5655 5659 5662 5665 5668 5673 5678 5681 5683 5685 5687 5688 5691 5693 5695 5698 5701 5702 5705 5707 5710 5714 5717 5719 5721 5725 5729 5733 5736 5740 5743 5746 5748 5752 5755 5758 5761 5762 5763 5766 5772 5778 5783 5786 5788 5791 5794 5796 5798 5800 5801 5803 5804 5805 5806 5808 5809
5482 5487 5493 5500 5504 5508 5513 5519 5528 5536 5540 5545 5552 5558 5562 5567 5574 5581 5587 5593 5600 5607 5614 5619 5624 5630 5635 5639 5643 5646 5649 5653 5656 5659 5662 5666 5672 5676 5679 5681 5683 5684 5685 5688 5690 5691 5694 5697 5698 5701 5704 5708 5710 5712 5715 5717 5721 5725 5728 5733 5737 5740 5742 5745 5748 5752 5755 5755 5757 5760 5764 5769 5774 5779 5783 5785 5787 5789 5792 5794 5795 5797 5798 5799 5800 5801 5803 5805
5479 5486 5494 5500 5504 5508 5513 5520 5526 5530 5536 5545 5551 5554 5558 5564 5571 5578 5583 5589 5596 5602 5609 5614 5620 5626 5631 5636 5639 5643 5647 5651 5654 5657 5660 5664 5669 5673 5675 5678 5680 5681 5682 5684 5686 5688 5691 5692 5693 5697 5700 5703 5706 5708 5712 5714 5717 5720 5724 5729 5732 5734 5739 5741 5744 5748 5750 5751 5755 5758 5760 5765 5770 5775 5779 5781 5783 5785 5787 5789 5790 5791 5792 5793 5795 5796 5798 5799
5476 5483 5491 5496 5500 5505 5510 5515 5520 5526 5535 5543 5545 5549 5556 5563 5569 5575 5581 5587 5593 5599 5605 5611 5617 5623 5629 5633 5637 5641 5645 5648 5651 5655 5657 5660 5665 5670 5672 5675 5677 5677 5679 5682 5684 5686 5686 5687 5689 5692 5694 5697 5700 5703 5707 5710 5713 5716 5720 5724 5726 5729 5733 5734 5737 5741 5742 5746 5750 5751 5754 5760 5765 5770 5774 5776 5778 5780 5782 5783 5785 5786 5787 5788 5790 5792 5793 5794
5471 5478 5485 5491 5496 5502 5507 5513 5520 5526 5532 5536 5541 5548 5554 5560 5567 5574 5581 5587 5591 5597 5603 5609 5615 5621 5625 5630 5634 5638 5641 5644 5648 5652 5654 5657 5662 5666 5669 5672 5674 5676 5678 5680 5681 5682 5683 5684 5686 5688 5689 5693 5697 5700 5703 5706 5708 5710 5714 5718 5721 5725 5727 5730 5734 5735 5736 5741 5744 5745 5751 5758 5762 5767 5769 5771 5774 5776 5777 5779 5780 5781 5782 5784 5785 5786 5788 5789
5467 5470 5475 5482 5491 5499 5505 5510 5516 5523 5528 5533 5539 5545 5550 5557 5565 5572 5578 5584 5589 5595 5601 5606 5611 5615 5619 5624 5628 5632 5636 5640 5644 5648 5651 5655 5659 5662 5666 5669 5671 5673 5674 5675 5677 5679 5680 5681 5684 5687 5690 5694 5698 5701 5703 5706 5706 5707 5711 5716 5719 5722 5725 5728 5729 5729 5735 5739 5740 5743 5751 5755 5760 5764 5765 5767 5770 5772 5773 5775 5776 5777 5777 5778 5779 5781 5782 5783
5466 5470 5475 5481 5488 5494 5499 5505 5513 5522 5528 5531 5535 5541 5547 5555 5562 5567 5573 5579 5586 5592 5597 5603 5607 5610 5614 5619 5624 5629 5633 5637 5640 5644 5648 5652 5656 5660 5663 5665 5667 5669 5670 5671 5672 5674 5676 5678 5682 5685 5688 5692 5695 5698 5701 5705 5706 5709 5712 5714 5718 5720 5722 5723 5724 5728 5735 5735 5735 5744 5750 5752 5757 5761 5761 5763 5767 5767 5769 5770 5770 5771 5772 5772 5774 5776 5777 5778
5461 5469 5478 5484 5488 5492 5498 5505 5513 5521 5526 5530 5534 5539 5545 5551 5558 5564 5569 5575 5582 5588 5593 5598 5603 5608 5614 5618 5622 5626 5629 5632 5637 5640 5644 5647 5652 5656 5659 5661 5663 5665 5666 5667 5668 5671 5673 5676 5679 5682 5684 5686 5689 5693 5696 5699 5703 5706 5708 5711 5714 5716 5717 5719 5722 5728 5731 5729 5734 5745 5748 5748 5753 5757 5756 5758 5760 5761 5763 5763 5764 5766 5767 5769 5770 5772 5772 5773
5460 5466 5474 5481 5488 5495 5502 5508 5513 5518 5522 5527 5532 5538 5545 5550 5556 5562 5568 5572 5577 5583 5589 5595 5601 5606 5611 5616 5619 5622 5625 5630 5634 5638 5642 5645 5648 5650 5653 5655 5658 5660 5662 5663 5665 5668 5671 5673 5675 5678 5681 5683 5685 5688 5691 5694 5697 5700 5702 5705 5707 5709 5712 5715 5718 5723 5724 5725 5731 5739 5738 5740 5745 5749 5751 5752 5753 5756 5758 5758 5760 5763 5764 5766 5766 5766 5766 5766
5460 5466 5472 5478 5485 5492 5497 5503 5508 5513 5518 5524 5530 5537 5544 5550 5555 5561 5566 5571 5575 5580 5586 5592 5599 5604 5608 5611 5615 5620 5625 5631 5635 5638 5640 5642 5644 5647 5649 5651 5654 5656 5658 5659 5661 5664 5667 5669 5671 5674 5676 5678 5681 5684 5687 5690 5692 5694 5696 5699 5701 5704 5707 5709 5713 5717 5717 5719 5725 5729 5728 5733 5740 5745 5748 5749 5750 5753 5754 5754 5756 5758 5759 5761 5761 5760 5760 5760
5459 5465 5470 5475 5482 5489 5495 5500 5504 5509 5514 5520 5527 5534 5541 5547 5553 5559 5563 5568 5574 5579 5584 5589 5595 5600 5604 5608 5612 5618 5624 5629 5632 5636 5638 5641 5644 5646 5647 5649 5651 5652 5654 5655 5657 5659 5662 5664 5667 5670 5672 5674 5677 5680 5682 5686 5688 5688 5690 5693 5697 5700 5703 5706 5709 5712 5713 5717 5722 5723 5724 5733 5741 5744 5745 5747 5747 5747 5747 5749 5752 5752 5752 5753 5753 5753 5754 5755
5456 5462 5468 5473 5479 5487 5494 5498 5503 5507 5513 5518 5525 5532 5539 5544 5550 5556 5560 5565 5571 5577 5583 5588 5592 5595 5599 5604 5610 5616 5620 5623 5626 5629 5632 5636 5640 5643 5645 5647 5649 5650 5651 5653 5654 5656 5659 5661 5663 5666 5669 5671 5674 5676 5679 5682 5682 5682 5686 5692 5695 5698 5701 5703 5706 5709 5712 5716 5718 5720 5725 5733 5737 5739 5741 5742 5740 5740 5741 5743 5745 5744 5745 5745 5745 5746 5748 5750